Regional Weather Roundup
Issued by NWS

Home | Current Version | Previous Version | Graphics & Text | Print | Product List | Glossary Off
Versions: 1 2 3 4 5 6 7 8 9 10 11 12 13 14 15 16 17 18 19 20 21 22 23 24 25 26 27 28 29 30 31 32 33 34 35 36 37 38 39 40 41 42 43 44 45 46 47 48 49 50

000
ASUS43 KTOP 150159
RWRKS

WEATHER ROUNDUP FOR KANSAS
NATIONAL WEATHER SERVICE GOODLAND KS
900 PM CDT SUN SEP 14 2014

NOTE:  "FAIR" INDICATES FEW OR NO CLOUDS BELOW 12,000 FEET WITH NO
SIGNIFICANT WEATHER AND/OR OBSTRUCTIONS TO VISIBILITY.

KSZ001>006-013>018-027>032-041>047-150300-
NORTHWEST KANSAS

CITY           SKY/WX    TMP DP  RH WIND       PRES   REMARKS
GOODLAND       PTCLDY    64  55  72 S9        29.98S
HAYS           CLEAR     72  61  68 SE13      29.95R
HILL CITY      CLEAR     69  60  73 E10       29.94R
RUSSELL        CLEAR     73  62  68 S13       29.94R
$$

KSZ061>065-074>080-084>089-150300-
SOUTHWEST KANSAS

CITY           SKY/WX    TMP DP  RH WIND       PRES   REMARKS
DODGE CITY     CLEAR     75  57  53 S16       29.99R
ELKHART          N/A    N/A N/A N/A MISG        N/A
GARDEN CITY    CLEAR     73  59  61 S9        29.98R
GREAT BEND     CLEAR     75  59  57 S17       29.97R
LIBERAL        CLEAR     73  57  56 S15       30.06R
PRATT          CLEAR     73  55  53 S20G26    30.02S
$$

KSZ066>073-081>083-090>101-150300-
SOUTHEAST KANSAS

CITY           SKY/WX    TMP DP  RH WIND       PRES   REMARKS
CHANUTE        CLEAR     66  58  75 SE7       30.10S
COFFEYVILLE    CLEAR     68  61  78 S8        30.10S
HUTCHINSON     CLEAR     75  60  59 S16       30.01R
NEWTON         CLEAR     72  57  60 S12       30.06R
PARSONS        CLEAR     67  59  75 SE5       30.11S
WICHITA INTL   PTCLDY    74  60  61 S14       30.04R
WICHITA JABRA  CLEAR     71  61  70 S12       30.04R
WINFIELD       CLEAR     70  63  78 S13       30.07S
$$

KSZ007>012-019>026-033>040-048>060-102>105-150300-
NORTHEAST KANSAS

CITY           SKY/WX    TMP DP  RH WIND       PRES   REMARKS
CONCORDIA      PTCLDY    65  60  84 SE9       29.99F
EMPORIA        PTCLDY    67  59  75 SE10      30.07S
LAWRENCE       PTCLDY    62  56  80 SE8       30.09S
MANHATTAN      MOCLDY    68  58  70 SE6       30.03S
OLATHE IND     PTCLDY    63  56  78 SE6       30.11R
OLATHE EXE     PTCLDY    62  56  80 S6        30.10R
SALINA         CLEAR     72  61  68 SE14      29.98S
TOPEKA BILLARD MOCLDY    66  58  75 SE7       30.07S
TOPEKA FORBES  CLOUDY    66  57  72 SE8       30.07S
$$



USA.gov is the U.S. government's official web portal to all federal, state and local government web resources and services.